DO8TBO-15 Weather Reports


Display with metric or nautical units.
time (UTC)temp
F
wind
direction
speed
MPH
gust
MPH
rain 1hr
in
rain 24hr
in
rain mn
in
humidity
%
barometer
mb
20260902190609 65 0.0 0.0 0.00 0.00 0.00 1020.3
20260902185605 65 0.0 0.0 0.00 0.00 0.00 1020.3
20260902184601 66 0.0 0.0 0.00 0.00 0.00 1020.2
20260902183558 67 0.0 0.0 0.00 0.00 0.00 1020.1
20260902182554 67 0.0 0.0 0.00 0.00 0.00 1020.2
20260902181550 68 0.0 0.0 0.00 0.00 0.00 1020.0
20260902180546 69 0.0 2.0 0.00 0.00 0.00 1019.8
20260902175542 70 0.0 2.0 0.00 0.00 0.00 1019.7
20260902174538 70 0.0 4.0 0.00 0.00 0.00 1019.6
20260902173535 71 225 0.0 3.0 0.00 0.00 0.00 1019.5
20260902172531 72 0 0.0 4.0 0.00 0.00 0.00 1019.6
20260902171528 73 0 0.0 3.0 0.00 0.00 0.00 1019.4
20260902170524 76 225 3.0 6.0 0.00 0.00 0.00 1019.4
20260902165520 76 148 1.0 4.0 0.00 0.00 0.00 1019.4
20260902164516 77 190 2.0 8.0 0.00 0.00 0.00 1019.4
20260902163613 78 278 1.0 5.0 0.00 0.00 0.00 1019.5
20260902162609 78 13 2.0 6.0 0.00 0.00 0.00 1019.4
20260902161605 79 308 1.0 8.0 0.00 0.00 0.00 1019.4
20260902160601 79 135 1.0 2.0 0.00 0.00 0.00 1019.4
20260902155558 78 293 0.0 3.0 0.00 0.00 0.00 1019.3
20260902154553 76 83 1.0 6.0 0.00 0.00 0.00 1019.4
20260902153550 75 285 1.0 8.0 0.00 0.00 0.00 1019.6
20260902152547 76 305 2.0 7.0 0.00 0.00 0.00 1019.6
20260902151542 76 135 0.0 4.0 0.00 0.00 0.00 1019.6
20260902150538 75 315 2.0 6.0 0.00 0.00 0.00 1019.7
20260902145535 75 180 0.0 4.0 0.00 0.00 0.00 1019.8
20260902144531 76 218 1.0 4.0 0.00 0.00 0.00 1019.8
20260902143528 77 264 1.0 6.0 0.00 0.00 0.00 1019.8
20260902142523 78 337 2.0 8.0 0.00 0.00 0.00 1019.6
20260902141519 77 219 4.0 8.0 0.00 0.00 0.00 1019.8
20260902140516 77 315 1.0 2.0 0.00 0.00 0.00 1019.9
20260902135612 77 229 2.0 8.0 0.00 0.00 0.00 1020.0
20260902134609 76 234 1.0 4.0 0.00 0.00 0.00 1020.0
20260902133605 76 227 1.0 4.0 0.00 0.00 0.00 1020.1
20260902132601 76 274 1.0 6.0 0.00 0.00 0.00 1019.9
20260902131557 76 282 1.0 6.0 0.00 0.00 0.00 1020.0
20260902130553 76 0.0 1.0 0.00 0.00 0.00 1020.2
20260902125550 78 306 0.0 5.0 0.00 0.00 0.00 1020.1
20260902124545 76 293 0.0 3.0 0.00 0.00 0.00 1020.3
20260902123542 75 22 1.0 4.0 0.00 0.00 0.00 1020.3
20260902122538 75 180 0.0 3.0 0.00 0.00 0.00 1020.4
20260902121534 77 225 0.0 3.0 0.00 0.00 0.00 1020.4
20260902120530 78 0 1.0 4.0 0.00 0.00 0.00 1020.4
20260902115527 78 208 0.0 5.0 0.00 0.00 0.00 1020.4
20260902114523 77 0 0.0 4.0 0.00 0.00 0.00 1020.6
20260902113518 78 0 0.0 2.0 0.00 0.00 0.00 1020.7
20260902112615 77 0.0 2.0 0.00 0.00 0.00 1020.8
20260902111611 75 0.0 4.0 0.00 0.00 0.00 1020.9
20260902110607 75 225 3.0 4.0 0.00 0.00 0.00 1020.9
20260902105604 75 0.0 1.0 0.00 0.00 0.00 1021.1
20260902104600 76 315 0.0 3.0 0.00 0.00 0.00 1021.1
20260902103556 76 177 2.0 5.0 0.00 0.00 0.00 1021.1
20260902102552 76 161 1.0 4.0 0.00 0.00 0.00 1021.1
20260902101548 76 180 0.0 2.0 0.00 0.00 0.00 1021.3
20260902100544 73 0.0 0.0 0.00 0.00 0.00 1021.4
20260902095541 72 180 0.0 3.0 0.00 0.00 0.00 1021.5
20260902094538 72 234 1.0 4.0 0.00 0.00 0.00 1021.6
20260902093534 71 191 0.0 3.0 0.00 0.00 0.00 1021.7
20260902092530 69 0.0 2.0 0.00 0.00 0.00 1021.7
20260902091526 67 0.0 1.0 0.00 0.00 0.00 1021.7
20260902090522 67 0.0 0.0 0.00 0.00 0.00 1021.6
20260902085519 66 0.0 1.0 0.00 0.00 0.00 1021.6
20260902084515 66 0.0 2.0 0.00 0.00 0.00 1021.5
20260902083611 64 0.0 0.0 0.00 0.00 0.00 1021.5
20260902082608 63 0.0 1.0 0.00 0.00 0.00 1021.6
20260902081605 63 180 0.0 3.0 0.00 0.00 0.00 1021.6
20260902080601 63 0.0 0.0 0.00 0.00 0.00 1021.6
20260902075557 62 0.0 0.0 0.00 0.00 0.00 1021.5
20260902074554 62 0.0 0.0 0.00 0.00 0.00 1021.6
20260902073549 60 0.0 0.0 0.00 0.00 0.00 1021.5
20260902072546 59 0.0 0.0 0.00 0.00 0.00 1021.5
20260902071542 58 0.0 0.0 0.00 0.00 0.00 1021.5
20260902070538 57 0.0 0.0 0.00 0.00 0.00 1021.4
20260902065535 56 0.0 0.0 0.00 0.00 0.00 1021.4
20260902064600 56 0.0 0.0 0.00 0.00 0.00 1021.3
20260902063556 56 0.0 0.0 0.00 0.00 0.00 1021.3
20260902062553 55 0.0 0.0 0.00 0.00 0.00 1021.3
20260902061549 54 0.0 0.0 0.00 0.00 0.00 1021.3
20260902060545 54 0.0 0.0 0.00 0.00 0.00 1021.4
20260902055542 53 0.0 0.0 0.00 0.00 0.00 1021.4
20260902054538 52 0.0 0.0 0.00 0.00 0.00 1021.4
20260902053533 51 0.0 0.0 0.00 0.00 0.00 1021.5
20260902052600 51 0.0 0.0 0.00 0.00 0.00 1021.5
20260902051556 50 0.0 0.0 0.00 0.00 0.00 1021.6
20260902050552 49 0.0 0.0 0.00 0.00 0.00 1021.3
20260902045548 50 0.0 0.0 0.00 0.00 0.00 1021.2
20260902044544 50 0.0 0.0 0.00 0.00 0.00 1021.2
20260902043541 49 0.0 2.0 0.00 0.00 0.00 1021.3
20260902042537 50 0.0 0.0 0.00 0.00 0.00 1021.3
20260902041533 50 0.0 0.0 0.00 0.00 0.00 1021.3
20260902040530 50 0.0 0.0 0.00 0.00 0.00 1021.3
20260902035525 50 0.0 0.0 0.00 0.00 0.00 1021.3
20260902034522 50 0.0 0.0 0.00 0.00 0.00 1021.3
20260902033518 51 0.0 0.0 0.00 0.00 0.00 1021.2
20260902032615 51 0.0 0.0 0.00 0.00 0.00 1021.2
20260902031611 51 0.0 0.0 0.00 0.00 0.00 1021.2
20260902030607 50 0.0 0.0 0.00 0.00 0.00 1021.2
20260902025603 50 0.0 0.0 0.00 0.00 0.00 1021.3
20260902024600 50 0.0 0.0 0.00 0.00 0.00 1021.2
20260902023555 50 0.0 0.0 0.00 0.00 0.00 1021.2
20260902022552 50 0.0 0.0 0.00 0.00 0.00 1021.2
20260902021547 51 0.0 0.0 0.00 0.00 0.00 1021.2
20260902020544 51 0.0 0.0 0.00 0.00 0.00 1021.3
20260902015541 51 0.0 0.0 0.00 0.00 0.00 1021.3
20260902014536 51 0.0 0.0 0.00 0.00 0.00 1021.2
20260902013532 51 0.0 0.0 0.00 0.00 0.00 1021.3
20260902012559 52 0.0 0.0 0.00 0.00 0.00 1021.3
20260902011555 52 0.0 0.0 0.00 0.00 0.00 1021.3
20260902010551 52 0.0 0.0 0.00 0.00 0.00 1021.4
20260902005548 52 0.0 0.0 0.00 0.00 0.00 1021.4
20260902004544 52 0.0 0.0 0.00 0.00 0.00 1021.5
20260902003540 53 0.0 0.0 0.00 0.00 0.00 1021.5
20260902002537 53 0.0 0.0 0.00 0.00 0.00 1021.5
20260902001533 53 0.0 0.0 0.00 0.00 0.00 1021.5
20260902000528 54 0.0 0.0 0.00 0.00 0.00 1021.6
20260901235525 54 0.0 0.0 0.00 0.00 0.00 1021.7
20260901234522 54 0.0 0.0 0.00 0.00 0.00 1021.6
20260901233518 54 0.0 0.0 0.00 0.00 0.00 1021.6
20260901232614 54 0.0 0.0 0.00 0.00 0.00 1021.6
20260901231610 54 0.0 0.0 0.00 0.00 0.00 1021.5
20260901230607 55 0.0 0.0 0.00 0.00 0.00 1021.4
20260901225603 56 0.0 0.0 0.00 0.00 0.00 1021.4
20260901224559 56 0.0 0.0 0.00 0.00 0.00 1021.4
20260901223554 56 0.0 0.0 0.00 0.00 0.00 1021.4
20260901222551 56 0.0 0.0 0.00 0.00 0.00 1021.3
20260901221547 56 0.0 0.0 0.00 0.00 0.00 1021.4
20260901220543 56 0.0 0.0 0.00 0.00 0.00 1021.3
20260901215540 57 0.0 0.0 0.00 0.00 0.00 1021.4
20260901214536 57 0.0 0.0 0.00 0.00 0.00 1021.3
20260901213532 58 0.0 0.0 0.00 0.00 0.00 1021.3
20260901212529 58 0.0 2.0 0.00 0.00 0.00 1021.3
20260901211525 57 0.0 0.0 0.00 0.00 0.00 1021.2
20260901210521 58 0.0 0.0 0.00 0.00 0.00 1021.1
20260901205517 58 0.0 0.0 0.00 0.00 0.00 1021.1
20260901204613 58 0.0 0.0 0.00 0.00 0.00 1021.2
20260901203609 59 0.0 0.0 0.00 0.00 0.00 1021.2
20260901202606 59 0.0 0.0 0.00 0.00 0.00 1021.1
20260901201602 60 0.0 0.0 0.00 0.00 0.00 1021.1
20260901200559 60 0.0 0.0 0.00 0.00 0.00 1021.0
20260901195554 61 0.0 0.0 0.00 0.00 0.00 1020.9
20260901194550 61 0.0 0.0 0.00 0.00 0.00 1020.9
20260901193546 62 0.0 0.0 0.00 0.00 0.00 1020.9
20260901192543 63 0.0 0.0 0.00 0.00 0.00 1020.9